[[{"header":{"parameterUnit":"m.s-1","parameterCategory":1,"la1":30.2991,"la2":30.254,"lo1":-89.0895,"lo2":-89.0444,"dy":0.0017,"dx":0.0017,"nx":28,"ny":28,"refTime":"2024-03-22T03:00:00:Z","depth":0,"parameterNumber":2,"parameterNumberName":"U-component_of_WINDS"},"data":[0,0,0,0,0,0,0,0,0,0,0,0,0,0,0,0,0,0,0,0,0,0,0,0,0,0,0,0,0,0,0,0,0,0,0,0,0,0,0,0,0,0,0,0,0,0,0,0,0,0,0,0,0,0,0,0,0,0,-3.561,-3.561,0,-3.5638,-3.5639,-3.5639,-3.5557,-3.5554,-3.5551,-3.5549,-3.5576,-3.5579,-3.5582,0,0,0,0,0,0,0,0,0,0,0,0,0,-3.5483,-3.5486,-3.561,-3.561,-3.5611,-3.5638,-3.5639,-3.5639,-3.5557,-3.5554,-3.5551,-3.5548,-3.5575,-3.5579,-3.5582,0,0,0,0,0,0,0,0,0,0,0,0,0,-3.5528,-3.5487,-3.561,-3.5573,-3.557,-3.5638,-3.5639,-3.5639,-3.5558,-3.5554,-3.555,-3.5546,-3.5574,-3.5578,-3.5583,-3.5687,0,0,-3.5597,-3.5599,0,0,0,0,0,0,0,0,-3.5525,-3.5532,-3.5578,-3.5576,-3.5573,-3.559,-3.5604,-3.5655,-3.5559,-3.5562,-3.5549,-3.5545,-3.5584,-3.5587,-3.5601,-3.5688,-3.569,-3.5597,-3.56,-3.5602,-3.5604,0,0,0,0,0,0,0,-3.5522,-3.5531,-3.5621,-3.5579,-3.5576,-3.5555,-3.5557,-3.5613,-3.5594,-3.5562,-3.5556,-3.556,-3.5581,-3.5597,-3.5601,-3.569,-3.5597,-3.5601,-3.5604,-3.5606,-3.5864,-3.5868,0,0,0,0,0,0,-3.5524,-3.5529,-3.562,-3.5622,-3.5539,-3.556,-3.5562,-3.5588,-3.5593,-3.559,-3.5564,-3.5556,-3.5591,-3.5596,-3.5601,-3.5723,-3.5602,-3.5606,-3.5609,-3.586,-3.5865,-3.587,0,0,0,0,0,0,-3.5522,-3.5533,-3.5619,-3.5574,-3.5583,-3.5566,-3.5596,-3.5591,-3.5606,-3.5594,-3.559,-3.5583,-3.5588,-3.5595,-3.5667,-3.5723,-3.5609,-3.5613,-3.5855,-3.5862,-3.5867,-3.5968,0,0,0,0,0,0,-3.5519,-3.5533,-3.5573,-3.5575,-3.5586,-3.5684,-3.5599,-3.5594,-3.5614,-3.5605,-3.5611,-3.5609,-3.5585,-3.566,-3.5671,-3.5727,-3.5616,-3.585,-3.5858,-3.5865,-3.596,-3.5977,-3.5992,0,0,0,0,0,-3.5514,-3.5599,-3.5575,-3.5586,-3.5635,-3.5688,-3.5694,-3.5666,-3.5619,-3.5659,-3.5651,-3.5608,-3.5716,-3.5668,-3.568,-3.5738,-3.5846,-3.5856,-3.5865,-3.5952,-3.5973,-3.5991,0,0,0,0,0,0,-3.5602,-3.5599,-3.5572,-3.566,-3.5675,-3.5674,-3.5722,-3.5689,-3.5716,-3.5707,-3.567,-3.5672,-3.5751,-3.5752,-3.5699,-3.5839,-3.5773,-3.5785,-3.5835,-3.5855,-3.5871,-3.5868,-3.562,0,0,0,0,0,-3.5633,-3.5676,-3.567,-3.5749,-3.5758,-3.574,-3.5761,-3.5739,-3.5752,-3.5758,-3.5755,-3.577,-3.5806,-3.5831,-3.5864,-3.596,-3.596,-3.6006,-3.6022,-3.6035,-3.6045,-3.6096,-3.6116,-3.59,-3.59,-3.59,0,0,-3.5694,-3.5698,-3.5727,-3.5767,-3.5776,-3.5821,-3.5745,-3.5796,-3.5829,-3.5765,-3.5832,-3.5832,-3.5845,-3.5929,-3.5966,-3.5932,-3.6105,-3.6047,-3.6058,-3.6061,-3.6107,-3.6128,-3.6146,-3.5906,-3.5905,-3.5904,0,0,-3.583,-3.5838,-3.5904,-3.5914,-3.5929,-3.5916,-3.5933,-3.5937,-3.5934,-3.6001,-3.5954,-3.5993,-3.6057,-3.6068,-3.6082,-3.6224,-3.6185,-3.6236,-3.6319,-3.6369,-3.6385,-3.64,-3.645,-3.6468,-3.6247,-3.6247,-3.6247,0,-3.5904,-3.5971,-3.5942,-3.5996,-3.6015,-3.596,-3.6027,-3.6038,-3.6063,-3.6077,-3.6039,-3.6119,-3.6124,-3.621,-3.6244,-3.6258,-3.6275,-3.6234,-3.6386,-3.64,-3.6414,-3.646,-3.6479,-3.6253,-3.6252,-3.6252,-3.6251,0,-3.6062,-3.6109,-3.6161,-3.6187,-3.6212,-3.6272,-3.6251,-3.6279,-3.6255,-3.6246,-3.6316,-3.632,-3.6353,-3.6372,-3.6349,-3.6455,-3.6434,-3.6392,-3.6324,-3.6441,-3.6484,-3.6502,-3.6262,-3.6259,-3.6258,-3.6256,0,0,-3.6252,-3.6262,-3.6281,-3.6292,-3.6305,-3.6341,-3.6399,-3.6432,-3.6457,-3.6476,-3.6523,-3.6579,-3.6541,-3.6557,-3.6535,-3.6578,-3.6689,-3.6531,-3.653,-3.6559,-3.6805,-3.6835,-3.6856,-3.6664,-3.6668,-3.667,-3.6803,0,-3.6384,-3.6484,-3.646,-3.6558,-3.6601,-3.6551,-3.6601,-3.6614,-3.6608,-3.6643,-3.6636,-3.6676,-3.6623,-3.6632,-3.6674,-3.6667,-3.6738,-3.6657,-3.6706,-3.6708,-3.6703,-3.6879,-3.6911,-3.7036,-3.682,-3.6823,-3.6825,0,-3.6551,-3.6578,-3.6681,-3.6688,-3.6705,-3.6751,-3.6779,-3.6814,-3.6828,-3.682,-3.684,-3.6809,-3.6865,-3.6799,-3.6876,-3.6822,-3.6841,-3.6841,-3.6845,-3.6847,-3.6772,-3.6884,-3.7076,-3.7094,-3.6852,-3.685,-3.6848,0,-3.6678,-3.674,-3.6809,-3.6821,-3.683,-3.6863,-3.6869,-3.6879,-3.6901,-3.6926,-3.6939,-3.6971,-3.6988,-3.7012,-3.6991,-3.6945,-3.7071,-3.7003,-3.7065,-3.7066,-3.7092,-3.709,-3.7288,-3.7108,-3.7108,-3.7107,-3.7107,0,-3.6827,-3.6891,-3.6866,-3.6909,-3.698,-3.6952,-3.7022,-3.7022,-3.7032,-3.7073,-3.7032,-3.7071,-3.7041,-3.7078,-3.7062,-3.7127,-3.7136,-3.713,-3.7125,-3.7133,-3.7133,-3.7143,-3.7133,-3.7112,-3.7111,-3.711,-3.7109,0,-3.6979,-3.6964,-3.7037,-3.7041,-3.7043,-3.7095,-3.7098,-3.7137,-3.7129,-3.7182,-3.7192,-3.7179,-3.722,-3.7202,-3.7245,-3.7234,-3.7318,-3.7302,-3.7313,-3.7308,-3.7371,-3.7365,-3.758,-3.7606,-3.7412,-3.7414,-3.7415,0,-3.7074,-3.7122,-3.7132,-3.7157,-3.7166,-3.7207,-3.7229,-3.7204,-3.7228,-3.7249,-3.7286,-3.7324,-3.7352,-3.7421,-3.7414,-3.7447,-3.743,-3.7503,-3.7434,-3.7441,-3.7429,-3.7426,-3.743,-3.7516,-3.7519,-3.752,-3.7522,0,-3.7243,-3.7234,-3.7268,-3.7301,-3.7329,-3.7353,-3.7373,-3.7396,-3.7371,-3.7401,-3.7444,-3.7466,-3.7511,-3.7549,-3.7578,-3.7582,-3.7548,-3.7544,-3.756,-3.7567,-3.7571,-3.7569,-3.7349,-3.7539,-3.7537,-3.7536,-3.7535,-3.7534,-3.7368,-3.7409,-3.7423,-3.7462,-3.7475,-3.7496,-3.7533,-3.753,-3.7565,-3.7599,-3.7583,-3.7632,-3.7645,-3.768,-3.769,-3.7727,-3.7698,-3.7721,-3.7727,-3.7732,-3.774,-3.7568,-3.7733,-3.7732,-3.7732,-3.7731,-3.7731,0,-3.7534,-3.7541,-3.7578,-3.7608,-3.764,-3.7607,-3.7628,-3.7655,-3.7699,-3.7715,-3.7745,-3.7793,-3.783,-3.7828,-3.7861,-3.7892,-3.7877,-3.7901,-3.7897,-3.7899,-3.7765,-3.7747,-3.7913,-3.7913,-3.7913,-3.7913,-3.7913,-3.7913,-3.7624,-3.7691,-3.7685,-3.7758,-3.7764,-3.7812,-3.7827,-3.7845,-3.7857,-3.7914,-3.7945,-3.7943,-3.7952,-3.7986,-3.8018,-3.8016,-3.803,-3.806,-3.8052,-3.7926,-3.7908,-3.7891,-3.7874,-3.8064,-3.8064,-3.8182,-3.8184,-3.8184]},{"header":{"parameterUnit":"m.s-1","parameterCategory":1,"la1":30.2991,"la2":30.254,"lo1":-89.0895,"lo2":-89.0444,"dy":0.0017,"dx":0.0017,"nx":28,"ny":28,"refTime":"2024-03-22T03:00:00:Z","depth":0,"parameterNumber":3,"parameterNumberName":"V-component_of_WINDS"},"data":[0,0,0,0,0,0,0,0,0,0,0,0,0,0,0,0,0,0,0,0,0,0,0,0,0,0,0,0,0,0,0,0,0,0,0,0,0,0,0,0,0,0,0,0,0,0,0,0,0,0,0,0,0,0,0,0,0,0,-1.4313,-1.4313,0,-1.4328,-1.4328,-1.4328,-1.4327,-1.4327,-1.4327,-1.4327,-1.4342,-1.4343,-1.4343,0,0,0,0,0,0,0,0,0,0,0,0,0,-1.4283,-1.4284,-1.4313,-1.4313,-1.4314,-1.4328,-1.4328,-1.4328,-1.4328,-1.4327,-1.4327,-1.4327,-1.4342,-1.4343,-1.4343,0,0,0,0,0,0,0,0,0,0,0,0,0,-1.4297,-1.4284,-1.4313,-1.4315,-1.4315,-1.4328,-1.4328,-1.4328,-1.4328,-1.4327,-1.4327,-1.4327,-1.4342,-1.4343,-1.4343,-1.4355,0,0,-1.4346,-1.4347,0,0,0,0,0,0,0,0,-1.4296,-1.4298,-1.4314,-1.4315,-1.4315,-1.4326,-1.4323,-1.4337,-1.4328,-1.4323,-1.4327,-1.4326,-1.4337,-1.4338,-1.4342,-1.4356,-1.4357,-1.4346,-1.4347,-1.4347,-1.4347,0,0,0,0,0,0,0,-1.4295,-1.4297,-1.4319,-1.4315,-1.4315,-1.4315,-1.4316,-1.4326,-1.4331,-1.4323,-1.4323,-1.4325,-1.4337,-1.4341,-1.4342,-1.4357,-1.4346,-1.4347,-1.4348,-1.4348,-1.438,-1.4381,0,0,0,0,0,0,-1.4294,-1.4297,-1.4319,-1.432,-1.4305,-1.4315,-1.4317,-1.4323,-1.4331,-1.4332,-1.4325,-1.4325,-1.4339,-1.4341,-1.4342,-1.4356,-1.4347,-1.4348,-1.4349,-1.438,-1.438,-1.4381,0,0,0,0,0,0,-1.4293,-1.4296,-1.4318,-1.4308,-1.4311,-1.4316,-1.4322,-1.4323,-1.4327,-1.4333,-1.4334,-1.4328,-1.4339,-1.4341,-1.4352,-1.4357,-1.4348,-1.4349,-1.438,-1.438,-1.438,-1.4384,0,0,0,0,0,0,-1.4292,-1.4296,-1.4301,-1.4308,-1.4311,-1.4327,-1.4323,-1.4324,-1.4328,-1.4328,-1.4336,-1.4337,-1.4339,-1.435,-1.4353,-1.4358,-1.435,-1.4379,-1.438,-1.438,-1.4383,-1.4384,-1.4385,0,0,0,0,0,-1.4291,-1.4302,-1.4301,-1.4304,-1.4318,-1.4328,-1.433,-1.4332,-1.4329,-1.4333,-1.4337,-1.4337,-1.4356,-1.4352,-1.4354,-1.4359,-1.4379,-1.438,-1.438,-1.4383,-1.4384,-1.4385,0,0,0,0,0,0,-1.4295,-1.4303,-1.4302,-1.4315,-1.4321,-1.4328,-1.4334,-1.4333,-1.434,-1.434,-1.4342,-1.4344,-1.4354,-1.4358,-1.4353,-1.4371,-1.4367,-1.4368,-1.4368,-1.4369,-1.437,-1.4369,-1.4351,0,0,0,0,0,-1.4297,-1.4305,-1.4311,-1.4322,-1.4325,-1.4329,-1.4333,-1.4334,-1.434,-1.4343,-1.4347,-1.4353,-1.436,-1.4365,-1.4372,-1.4384,-1.4385,-1.4388,-1.4389,-1.439,-1.4391,-1.4396,-1.4398,-1.4383,-1.4383,-1.4383,0,0,-1.4303,-1.4307,-1.4312,-1.4323,-1.4327,-1.4335,-1.4331,-1.4339,-1.4344,-1.4344,-1.4354,-1.4357,-1.4364,-1.4375,-1.438,-1.4378,-1.4395,-1.4391,-1.4392,-1.4392,-1.4397,-1.4399,-1.44,-1.4383,-1.4383,-1.4383,0,0,-1.4315,-1.432,-1.4329,-1.4333,-1.434,-1.4342,-1.4344,-1.435,-1.4352,-1.4362,-1.4362,-1.4368,-1.4381,-1.4385,-1.4388,-1.44,-1.44,-1.4403,-1.4408,-1.4413,-1.4414,-1.4415,-1.4419,-1.442,-1.4404,-1.4404,-1.4404,0,-1.4321,-1.4332,-1.4334,-1.4341,-1.4346,-1.4345,-1.4353,-1.4357,-1.4366,-1.4368,-1.4366,-1.4381,-1.4385,-1.4396,-1.4399,-1.4403,-1.4404,-1.4402,-1.4414,-1.4415,-1.4416,-1.4419,-1.442,-1.4404,-1.4404,-1.4404,-1.4404,0,-1.4338,-1.4345,-1.4351,-1.4359,-1.4364,-1.4372,-1.4374,-1.4379,-1.4379,-1.4381,-1.4391,-1.4395,-1.4403,-1.4405,-1.4406,-1.4416,-1.4415,-1.4413,-1.4409,-1.4417,-1.4421,-1.4422,-1.4404,-1.4404,-1.4404,-1.4404,0,0,-1.4355,-1.4361,-1.4364,-1.4366,-1.4373,-1.4378,-1.4386,-1.4392,-1.4396,-1.4401,-1.4407,-1.4417,-1.4415,-1.4419,-1.442,-1.4424,-1.4432,-1.4422,-1.4422,-1.4423,-1.4443,-1.4444,-1.4445,-1.4432,-1.4432,-1.4432,-1.4442,0,-1.4367,-1.4381,-1.4381,-1.4393,-1.44,-1.4398,-1.4404,-1.4408,-1.441,-1.4416,-1.4418,-1.4424,-1.4421,-1.4424,-1.4428,-1.443,-1.4436,-1.443,-1.4437,-1.4437,-1.4435,-1.4447,-1.4448,-1.4457,-1.4443,-1.4443,-1.4443,0,-1.4385,-1.4389,-1.4402,-1.4405,-1.4408,-1.4414,-1.4419,-1.4425,-1.4429,-1.443,-1.4433,-1.4433,-1.444,-1.4436,-1.4445,-1.444,-1.4443,-1.4444,-1.4445,-1.4446,-1.4441,-1.4448,-1.446,-1.4462,-1.4446,-1.4445,-1.4445,0,-1.4394,-1.4404,-1.4413,-1.4415,-1.442,-1.4424,-1.4426,-1.443,-1.4433,-1.4438,-1.444,-1.4445,-1.4448,-1.4452,-1.4453,-1.445,-1.4461,-1.4457,-1.4462,-1.4462,-1.4465,-1.4465,-1.4478,-1.4467,-1.4467,-1.4467,-1.4467,0,-1.4409,-1.4416,-1.4417,-1.4422,-1.443,-1.443,-1.4438,-1.444,-1.4443,-1.4448,-1.4447,-1.4451,-1.4452,-1.4457,-1.4457,-1.4464,-1.4466,-1.4466,-1.4466,-1.4466,-1.4466,-1.4468,-1.4467,-1.4467,-1.4467,-1.4467,-1.4467,0,-1.4422,-1.4422,-1.4431,-1.4434,-1.4435,-1.4441,-1.4443,-1.4448,-1.4449,-1.4455,-1.4456,-1.4458,-1.4463,-1.4464,-1.4471,-1.4471,-1.4479,-1.4479,-1.4478,-1.4478,-1.4482,-1.4481,-1.4497,-1.4498,-1.4487,-1.4487,-1.4487,0,-1.4431,-1.4436,-1.4439,-1.4442,-1.4444,-1.4449,-1.4452,-1.4452,-1.4456,-1.446,-1.4463,-1.4468,-1.4472,-1.4481,-1.4482,-1.4487,-1.4486,-1.4491,-1.4487,-1.4486,-1.4486,-1.4485,-1.4485,-1.4492,-1.4492,-1.4492,-1.4493,0,-1.4446,-1.4446,-1.445,-1.4454,-1.4458,-1.4461,-1.4464,-1.4467,-1.4467,-1.447,-1.4475,-1.4478,-1.4484,-1.4489,-1.4493,-1.4495,-1.4493,-1.4494,-1.4495,-1.4495,-1.4494,-1.4494,-1.448,-1.4493,-1.4493,-1.4493,-1.4493,-1.4493,-1.4457,-1.4461,-1.4463,-1.4468,-1.447,-1.4473,-1.4476,-1.4477,-1.4482,-1.4486,-1.4486,-1.4491,-1.4493,-1.4499,-1.45,-1.4504,-1.4503,-1.4505,-1.4505,-1.4505,-1.4505,-1.4493,-1.4505,-1.4505,-1.4505,-1.4505,-1.4505,0,-1.4472,-1.4473,-1.4477,-1.4481,-1.4484,-1.4482,-1.4485,-1.4487,-1.4492,-1.4494,-1.4498,-1.4503,-1.4507,-1.4508,-1.4512,-1.4514,-1.4514,-1.4515,-1.4515,-1.4515,-1.4507,-1.4505,-1.4516,-1.4516,-1.4516,-1.4516,-1.4516,-1.4516,-1.448,-1.4486,-1.4486,-1.4493,-1.4494,-1.4499,-1.45,-1.4502,-1.4504,-1.451,-1.4513,-1.4513,-1.4515,-1.4518,-1.4522,-1.4522,-1.4523,-1.4525,-1.4525,-1.4517,-1.4516,-1.4515,-1.4513,-1.4525,-1.4525,-1.4533,-1.4533,-1.4533]}]]